Wind_Speed
3 2 2 3 3 3 4 5 5 5 4 4 4 4 4 5 5 4 4 3 2 1 0 0 1 1 1 2 3 4 5 6 6 6 6 6 6 5 5 4 5 5 5 5 6 6 6 6 6
4 3 3 3 3 4 5 5 5 5 4 4 4 4 4 5 4 5 4 4 3 2 1 1 1 0 1 2 3 4 5 6 6 6 6 6 6 6 6 5 5 6 6 6 6 6 7 7 7
4 3 3 3 4 5 5 4 5 6 5 4 4 4 5 5 4 5 5 4 3 2 2 2 2 1 1 2 3 4 5 6 7 6 6 7 7 7 7 7 7 7 7 7 7 7 7 8 8
5 4 4 4 5 5 5 5 5 5 5 5 4 5 6 6 5 5 6 5 4 3 3 2 2 1 1 2 3 5 6 6 7 7 7 7 8 8 8 8 8 7 7 7 7 8 8 8 9
6 5 5 6 6 6 5 6 5 5 6 5 5 6 6 6 6 6 6 5 4 4 3 3 2 1 1 2 4 5 6 7 7 7 8 8 8 8 8 8 7 7 6 6 7 7 7 8 9
7 6 7 7 7 7 6 7 6 7 7 7 6 6 7 6 5 6 7 6 5 4 3 3 3 1 1 2 4 5 6 7 7 7 8 8 8 8 8 8 8 6 6 5 5 6 6 8 9
8 8 8 8 8 7 7 8 7 7 7 7 7 7 7 7 6 6 6 6 6 4 3 3 2 1 0 2 3 4 5 6 7 8 8 8 9 8 8 8 7 6 5 4 5 5 6 8 8
8 8 8 9 9 8 8 8 8 9 8 8 8 8 8 7 7 6 5 6 6 5 4 3 2 1 0 1 2 4 5 6 7 8 8 8 8 8 8 7 6 5 4 4 3 4 5 7 8
9 9 9 9 9 9 9 9 9 9 9 9 9 9 9 8 8 7 7 6 5 5 4 4 2 1 0 1 2 4 5 6 7 8 8 8 8 8 7 7 6 5 4 3 3 3 4 5 7
9 9 10 10 9 10 10 9 9 9 9 9 9 9 9 8 8 8 8 7 5 5 5 4 2 1 1 0 2 3 5 6 8 8 9 8 8 8 8 7 6 5 4 3 3 3 4 5 6
10 9 9 9 9 10 10 10 10 9 10 9 9 9 9 8 8 8 8 7 6 5 5 4 3 2 2 1 2 3 5 7 8 8 9 9 9 9 8 7 6 5 4 3 2 2 3 5 6
11 10 10 10 10 10 10 10 10 11 11 9 9 9 9 9 10 8 8 7 6 5 6 5 4 3 2 2 2 2 4 6 7 8 9 9 9 9 9 8 7 5 4 3 1 1 3 4 6
11 11 11 10 10 10 10 10 11 11 10 9 9 9 9 9 10 9 8 7 6 6 6 6 5 4 3 2 2 2 4 6 7 8 9 9 10 10 9 8 7 6 4 3 1 1 2 4 5
11 11 11 11 11 11 10 10 11 11 10 9 9 9 9 9 9 9 8 8 8 7 7 7 6 4 4 3 2 2 4 5 7 8 9 9 10 10 9 9 8 7 5 3 2 2 3 4 6
11 11 11 10 10 10 10 10 11 11 11 10 10 9 9 9 8 9 9 9 9 8 7 7 6 5 4 3 2 2 4 5 7 8 9 9 10 10 10 10 9 8 6 5 4 4 5 5 6
11 11 11 10 10 10 11 11 12 12 11 10 10 9 8 9 8 9 10 10 10 8 7 7 6 6 4 3 2 3 4 5 6 7 8 10 10 11 11 11 10 10 9 8 7 7 7 7 7
12 11 11 11 10 11 11 11 11 12 12 11 10 9 9 8 9 10 10 10 10 9 8 7 7 6 4 3 2 2 3 4 6 7 8 10 10 10 11 11 11 11 10 9 9 9 8 8 8
11 12 12 12 11 11 11 12 12 11 12 12 11 10 10 9 10 10 10 10 10 10 10 8 8 6 5 4 3 2 3 4 5 7 8 9 10 10 10 11 11 10 10 9 9 9 9 9 9
12 12 12 12 12 11 12 12 12 12 11 11 11 11 10 11 11 11 11 11 11 11 10 9 8 7 5 4 3 2 2 3 5 6 7 8 10 10 10 11 11 11 11 10 9 9 9 9 9
12 12 12 12 12 12 12 13 13 12 13 12 11 11 11 11 12 13 12 11 11 12 10 10 9 7 6 5 4 3 2 2 4 6 7 8 9 10 10 11 11 11 11 11 11 10 10 9 9
12 12 12 12 12 12 12 13 13 13 13 13 12 11 11 12 13 12 12 12 13 13 12 11 10 8 7 6 5 3 2 2 3 5 6 7 8 9 10 10 10 11 11 11 11 11 10 10 9
12 12 13 13 12 12 13 13 14 14 14 14 13 12 12 13 14 14 13 13 14 14 13 12 11 9 8 6 5 4 3 2 3 4 5 7 7 8 9 10 10 10 10 11 10 10 10 10 9
12 12 13 12 12 12 12 13 13 14 15 14 15 14 13 14 15 15 14 14 15 14 14 14 12 10 9 7 6 5 4 3 3 3 5 6 7 7 8 9 9 10 10 10 10 10 10 9 9
13 12 12 12 13 12 12 13 13 13 14 14 15 15 15 15 15 15 15 15 15 15 15 14 13 11 10 8 7 6 4 3 3 2 3 5 6 6 7 8 8 9 9 10 10 10 9 9 9
12 12 12 12 13 13 13 14 13 13 14 14 14 15 15 15 16 16 16 16 16 16 16 15 14 12 11 9 8 7 5 4 3 3 2 3 4 5 6 6 7 8 8 8 8 9 9 8 8
13 13 13 13 13 13 13 13 13 13 14 14 15 15 16 16 16 16 17 17 16 16 16 16 15 13 12 11 9 8 7 5 4 3 2 3 3 4 5 5 6 7 7 7 7 7 7 7 7
13 14 13 13 13 13 13 12 13 13 14 14 15 16 17 16 17 17 17 17 17 17 17 16 16 14 13 12 11 9 8 6 5 4 3 3 3 3 4 4 5 5 6 6 6 6 6 6 6
13 13 13 13 13 13 12 13 13 14 15 15 15 16 17 17 18 18 18 18 18 18 18 17 17 15 14 13 12 10 9 8 6 5 4 3 3 3 3 3 4 4 5 5 5 6 5 5 5
13 13 14 13 13 13 13 13 14 14 14 15 16 16 17 17 17 18 19 19 19 19 18 18 17 17 16 15 13 12 10 9 7 6 5 4 4 3 3 3 3 3 3 3 3 4 4 4 4
14 14 14 14 13 14 14 13 13 14 14 15 16 17 17 17 18 18 19 20 20 19 19 18 18 18 17 16 15 13 12 10 9 8 7 5 4 4 3 3 2 2 2 2 2 3 3 3 3
Wind_Direction
247 251 254 245 249 259 257 252 254 254 250 248 228 217 209 210 209 205 195 191 200 219 291 256 94 79 65 46 28 14 1 354 346 346 344 339 333 327 325 317 309 303 289 281 259 241 234 228 226
248 255 263 247 244 254 267 257 257 257 257 245 238 232 220 217 211 204 199 203 212 221 234 228 254 16 35 26 7 360 352 349 346 349 345 340 335 328 321 309 304 301 294 280 266 247 235 233 232
254 253 251 243 250 253 261 257 255 257 244 240 241 231 227 216 210 211 206 202 210 217 224 231 236 273 321 350 353 354 355 353 349 347 342 339 335 328 320 310 301 295 291 280 262 246 238 239 234
256 253 243 243 252 257 257 256 259 255 238 236 243 230 226 222 217 218 210 204 205 208 207 213 228 262 313 357 1 356 357 354 351 345 340 339 334 329 324 319 310 299 287 273 256 247 245 240 232
255 254 248 246 253 260 260 259 257 252 239 242 241 233 228 226 227 221 217 209 203 205 205 211 214 250 316 349 354 356 353 351 349 346 345 343 337 332 328 323 317 306 289 274 261 249 244 235 231
252 249 246 248 248 253 256 254 252 252 248 249 245 237 233 229 225 220 217 212 204 204 213 218 212 232 303 347 355 356 355 355 352 349 346 342 337 333 330 325 318 312 296 282 266 250 244 232 229
250 251 247 248 251 253 250 247 247 252 249 246 249 237 236 229 224 220 222 210 205 209 216 213 213 218 281 1 3 1 358 356 355 352 348 344 339 336 334 331 327 322 309 288 264 247 235 226 223
256 253 248 245 250 253 249 246 248 251 251 249 248 241 234 234 228 220 221 212 206 212 211 199 190 181 20 19 11 4 360 358 355 352 349 346 344 343 341 338 335 330 323 306 275 250 235 222 217
255 252 246 247 248 250 249 247 248 251 248 246 245 241 231 230 224 217 216 214 211 214 204 198 191 178 159 37 17 5 1 358 358 356 353 351 350 348 345 343 340 334 328 314 284 250 234 222 216
252 248 247 249 249 250 251 249 248 250 245 244 242 237 231 225 217 212 211 217 219 220 212 201 199 205 189 144 31 11 6 2 3 2 0 359 357 354 352 348 344 339 329 316 288 245 226 217 210
249 247 248 249 250 251 253 247 243 242 240 239 239 235 229 221 216 209 209 214 217 216 200 195 197 185 167 119 51 19 14 11 11 8 9 8 4 1 0 357 353 348 340 324 294 244 217 208 204
248 246 246 248 249 250 250 243 238 239 239 235 238 235 227 219 213 209 208 209 211 201 199 195 184 173 162 123 68 33 24 19 16 15 16 14 12 10 13 13 10 5 360 349 321 229 204 197 195
251 248 248 250 252 250 246 241 240 239 235 236 235 235 229 220 214 212 210 204 198 196 195 189 182 169 154 126 90 44 24 22 21 21 21 19 19 19 20 19 18 18 15 13 25 124 175 179 179
249 250 251 252 252 250 243 242 241 242 237 238 235 230 226 224 216 214 208 200 191 183 181 181 173 158 150 134 99 47 33 32 29 28 27 26 25 25 27 25 26 26 28 32 55 102 127 150 163
249 251 252 253 252 248 244 241 243 245 238 236 229 228 228 227 219 213 205 198 189 180 176 177 166 157 149 139 99 62 51 44 39 34 31 31 31 33 36 36 36 37 44 54 72 95 109 130 147
250 253 254 255 254 248 245 245 244 243 239 235 231 230 228 228 216 208 205 198 189 183 177 174 166 162 158 150 122 78 59 49 43 38 37 36 38 39 41 43 46 51 58 68 80 92 101 115 132
249 252 255 256 254 250 245 244 244 238 235 231 231 228 226 222 213 207 203 198 193 189 183 181 171 168 168 160 135 94 66 54 46 43 42 42 43 43 45 46 51 57 64 73 83 92 99 107 116
250 250 251 253 250 245 240 239 239 235 232 231 229 229 231 223 209 205 201 199 197 193 185 183 175 172 170 163 146 114 80 59 52 48 47 45 44 46 48 51 56 59 68 78 86 93 100 105 110
250 249 247 246 243 239 238 239 234 225 227 227 229 228 226 217 212 208 206 201 198 193 188 183 174 171 169 167 157 137 100 65 54 52 51 47 46 49 53 56 59 62 68 77 85 92 99 104 107
250 247 245 243 241 242 243 238 236 232 228 228 232 230 221 216 209 208 207 203 195 191 191 187 180 178 177 175 167 149 119 79 60 57 54 50 49 52 57 59 62 66 70 76 84 92 97 102 106
247 245 243 242 242 241 239 235 236 233 230 228 231 231 225 213 207 203 204 202 196 194 193 188 184 182 181 179 172 157 137 100 76 65 59 56 54 56 58 61 66 69 73 78 85 92 95 98 103
247 246 244 242 241 239 236 234 234 231 226 226 230 229 223 213 209 205 207 206 199 195 196 193 188 187 186 184 175 167 156 123 94 75 66 61 60 61 62 66 70 72 75 79 83 90 95 98 100
246 247 245 243 241 239 235 234 236 231 227 226 227 226 223 215 211 206 207 206 201 197 199 196 192 192 191 190 182 174 169 146 118 88 74 67 65 65 67 72 75 75 78 80 82 85 90 96 98
244 245 244 243 240 237 233 232 232 231 230 230 228 226 223 219 211 206 207 205 201 198 197 196 195 195 195 192 187 181 175 163 151 118 87 75 70 69 71 77 77 79 80 81 85 86 89 93 93
241 242 244 242 239 236 233 233 230 230 229 229 227 223 219 218 210 207 207 204 201 199 199 199 199 199 199 197 193 188 183 176 168 150 110 89 80 75 75 80 80 79 80 83 85 86 87 89 90
241 240 239 240 239 237 235 235 232 229 228 229 225 222 218 216 214 211 207 206 204 202 201 200 200 201 202 201 200 196 190 184 175 163 137 109 97 90 86 88 86 82 82 83 85 87 87 86 84
239 238 237 238 238 236 235 233 233 230 227 227 225 222 217 216 217 214 209 209 206 204 203 203 203 203 204 204 203 199 196 191 184 174 159 139 121 109 100 98 95 91 86 84 82 83 82 80 77
237 235 233 234 236 235 233 231 232 232 229 226 225 221 219 219 219 217 213 211 208 207 208 208 207 207 207 205 203 203 202 199 194 186 174 158 145 132 115 105 100 98 90 84 80 80 80 75 69
234 232 232 234 235 233 233 234 234 233 232 230 227 222 221 221 218 216 213 211 209 210 210 211 209 209 209 208 209 209 208 207 202 198 193 180 167 154 140 125 116 103 92 86 81 79 75 65 59
233 231 230 232 234 232 233 234 233 234 233 231 229 226 223 222 220 216 214 213 211 210 212 212 210 211 212 212 212 213 212 211 208 207 203 197 189 177 166 157 141 124 101 85 75 63 61 56 46
Height
5895 5896 5897 5898 5899 5899 5898 5898 5898 5899 5899 5898 5898 5898 5899 5899 5900 5903 5900 5899 5899 5898 5898 5897 5896 5896 5895 5894 5893 5893 5893 5892 5891 5890 5889 5887 5886 5885 5884 5884 5883 5882 5882 5881 5881 5882 5882 5882 5883
5895 5895 5897 5897 5897 5897 5897 5897 5897 5898 5898 5898 5898 5898 5898 5898 5899 5899 5898 5898 5898 5898 5897 5897 5896 5895 5895 5894 5893 5893 5892 5891 5890 5889 5888 5886 5885 5884 5883 5882 5881 5881 5880 5880 5880 5880 5880 5880 5881
5894 5895 5896 5896 5896 5897 5897 5896 5896 5896 5897 5897 5897 5897 5898 5898 5898 5897 5897 5897 5897 5897 5896 5896 5895 5895 5894 5894 5893 5893 5892 5891 5889 5888 5887 5885 5884 5883 5881 5880 5880 5879 5878 5878 5878 5878 5878 5879 5879
5893 5894 5895 5895 5895 5895 5896 5896 5895 5895 5896 5896 5896 5896 5897 5897 5897 5897 5896 5896 5896 5896 5896 5895 5895 5895 5894 5893 5893 5892 5891 5890 5889 5887 5886 5884 5883 5881 5880 5878 5878 5877 5876 5876 5876 5876 5876 5877 5877
5892 5893 5894 5894 5894 5894 5894 5894 5894 5894 5894 5895 5895 5895 5895 5895 5895 5895 5895 5896 5895 5895 5895 5895 5895 5894 5894 5893 5892 5892 5891 5889 5888 5886 5885 5883 5882 5880 5879 5877 5876 5875 5874 5874 5874 5874 5874 5875 5875
5890 5891 5892 5892 5892 5892 5892 5892 5892 5893 5893 5893 5894 5894 5894 5894 5894 5894 5895 5895 5895 5895 5894 5894 5894 5894 5893 5893 5892 5891 5890 5889 5887 5886 5884 5882 5881 5879 5877 5876 5874 5873 5872 5871 5871 5871 5872 5873 5873
5889 5889 5890 5890 5891 5891 5891 5891 5891 5891 5891 5892 5892 5892 5892 5893 5893 5893 5893 5894 5894 5894 5894 5893 5893 5893 5893 5893 5892 5891 5890 5889 5887 5885 5883 5881 5879 5878 5876 5874 5872 5871 5870 5870 5869 5869 5870 5871 5871
5886 5888 5887 5888 5889 5889 5889 5889 5889 5889 5890 5890 5890 5891 5891 5892 5892 5892 5893 5893 5893 5893 5893 5893 5893 5893 5893 5892 5892 5891 5890 5889 5887 5885 5883 5881 5879 5877 5875 5873 5871 5870 5869 5868 5868 5868 5868 5869 5870
5884 5886 5885 5886 5887 5887 5887 5887 5887 5887 5888 5888 5888 5889 5889 5890 5890 5891 5892 5892 5892 5892 5892 5892 5892 5892 5892 5892 5892 5891 5890 5888 5887 5884 5882 5880 5878 5876 5874 5872 5870 5869 5868 5867 5867 5866 5867 5867 5868
5882 5883 5883 5884 5884 5885 5885 5885 5885 5885 5886 5886 5887 5887 5887 5888 5889 5889 5890 5891 5891 5891 5892 5892 5892 5892 5892 5892 5892 5891 5890 5888 5886 5884 5882 5879 5877 5875 5873 5871 5869 5868 5867 5866 5865 5865 5865 5865 5866
5879 5880 5881 5881 5882 5882 5882 5883 5883 5884 5884 5884 5885 5885 5886 5887 5887 5888 5889 5889 5890 5890 5891 5891 5892 5892 5892 5892 5891 5891 5889 5888 5886 5884 5882 5879 5877 5875 5873 5870 5869 5867 5866 5865 5864 5864 5864 5864 5865
5877 5878 5878 5879 5880 5880 5880 5881 5881 5882 5882 5882 5883 5883 5884 5885 5886 5887 5888 5888 5889 5889 5890 5891 5891 5892 5892 5892 5891 5891 5890 5888 5886 5884 5882 5880 5877 5875 5872 5870 5868 5867 5865 5864 5864 5863 5863 5863 5864
5875 5875 5876 5877 5877 5878 5878 5879 5879 5880 5880 5881 5881 5882 5882 5884 5885 5886 5886 5887 5888 5889 5889 5890 5891 5891 5892 5892 5892 5891 5890 5888 5887 5884 5882 5880 5877 5875 5873 5870 5868 5867 5865 5864 5863 5863 5863 5863 5864
5873 5873 5874 5875 5875 5876 5876 5877 5877 5878 5878 5879 5880 5880 5881 5882 5883 5884 5885 5886 5887 5888 5889 5890 5891 5891 5892 5892 5892 5891 5890 5889 5887 5885 5883 5880 5878 5875 5873 5871 5869 5867 5865 5864 5863 5863 5863 5863 5864
5870 5871 5872 5872 5873 5874 5874 5875 5875 5876 5877 5877 5878 5879 5880 5881 5882 5883 5884 5885 5887 5888 5889 5890 5891 5891 5892 5892 5892 5891 5890 5889 5887 5885 5883 5881 5878 5876 5873 5871 5869 5867 5865 5864 5863 5863 5863 5863 5864
5868 5870 5870 5871 5871 5872 5874 5874 5873 5874 5875 5876 5876 5877 5878 5879 5881 5882 5883 5885 5886 5887 5889 5890 5891 5891 5892 5892 5892 5892 5891 5890 5888 5886 5884 5882 5879 5877 5874 5872 5870 5868 5866 5865 5865 5864 5864 5864 5865
5866 5867 5868 5868 5869 5869 5871 5871 5871 5872 5873 5874 5875 5876 5877 5878 5879 5881 5883 5884 5886 5887 5889 5890 5891 5891 5892 5892 5892 5892 5891 5890 5889 5887 5885 5883 5880 5878 5876 5873 5871 5869 5868 5867 5866 5866 5866 5866 5866
5864 5865 5865 5866 5866 5867 5868 5869 5869 5870 5871 5872 5873 5874 5875 5877 5878 5880 5882 5883 5885 5887 5888 5889 5890 5891 5892 5892 5893 5893 5892 5891 5889 5888 5886 5884 5882 5879 5877 5875 5873 5871 5870 5869 5868 5868 5868 5868 5868
5861 5862 5863 5863 5864 5865 5865 5866 5867 5868 5869 5870 5872 5873 5874 5875 5877 5879 5881 5882 5884 5886 5888 5889 5890 5891 5892 5893 5893 5893 5892 5891 5890 5888 5887 5885 5883 5881 5878 5877 5875 5873 5872 5871 5870 5870 5870 5870 5870
5859 5860 5860 5861 5862 5863 5863 5864 5865 5866 5867 5869 5870 5871 5873 5874 5876 5878 5880 5881 5883 5885 5887 5888 5890 5891 5892 5893 5893 5893 5893 5892 5891 5889 5888 5886 5884 5882 5880 5879 5877 5876 5874 5873 5872 5872 5872 5872 5872
5856 5857 5858 5859 5859 5860 5861 5862 5863 5864 5865 5867 5868 5870 5871 5873 5875 5876 5878 5880 5882 5884 5886 5888 5889 5891 5892 5892 5893 5893 5893 5892 5891 5890 5889 5887 5885 5884 5882 5880 5879 5878 5877 5876 5875 5874 5874 5874 5875
5853 5854 5855 5856 5857 5858 5859 5860 5861 5862 5863 5865 5866 5868 5869 5871 5873 5875 5877 5879 5881 5883 5886 5887 5889 5890 5891 5892 5893 5893 5893 5893 5892 5891 5890 5888 5887 5885 5884 5882 5881 5880 5879 5878 5878 5877 5877 5877 5877
5850 5851 5852 5853 5854 5855 5856 5858 5859 5859 5861 5863 5864 5865 5867 5869 5871 5873 5875 5877 5880 5882 5884 5886 5888 5890 5891 5892 5893 5893 5893 5893 5892 5892 5891 5890 5888 5887 5886 5885 5883 5883 5882 5881 5880 5880 5879 5879 5879
5847 5849 5849 5850 5851 5853 5854 5855 5857 5857 5858 5860 5861 5863 5865 5867 5869 5871 5874 5876 5878 5881 5883 5885 5888 5889 5891 5892 5892 5893 5893 5893 5893 5892 5892 5891 5890 5889 5887 5886 5886 5885 5884 5883 5883 5882 5882 5881 5881
5845 5846 5847 5848 5849 5850 5851 5852 5855 5854 5856 5857 5859 5860 5862 5864 5867 5869 5872 5874 5877 5879 5882 5884 5886 5888 5890 5891 5892 5893 5893 5893 5893 5893 5892 5892 5891 5890 5889 5888 5888 5887 5886 5885 5885 5885 5884 5884 5883
5841 5843 5845 5846 5847 5847 5848 5849 5852 5852 5853 5854 5856 5858 5860 5863 5865 5867 5870 5873 5875 5878 5880 5883 5885 5887 5889 5890 5892 5892 5893 5893 5893 5893 5893 5892 5892 5891 5890 5890 5889 5889 5888 5887 5887 5887 5886 5886 5885
5838 5839 5841 5842 5843 5845 5846 5847 5848 5849 5850 5851 5853 5855 5858 5860 5863 5865 5868 5870 5873 5876 5878 5881 5883 5886 5887 5889 5891 5892 5892 5893 5893 5893 5893 5893 5893 5892 5892 5891 5891 5890 5890 5889 5889 5888 5888 5887 5887
5835 5836 5838 5839 5840 5842 5844 5845 5846 5846 5847 5849 5851 5853 5855 5857 5860 5862 5865 5868 5871 5873 5876 5879 5881 5884 5886 5888 5889 5891 5892 5892 5893 5893 5893 5893 5893 5893 5893 5892 5892 5892 5891 5891 5890 5890 5889 5889 5888
5832 5833 5834 5836 5837 5839 5841 5844 5843 5843 5845 5847 5848 5850 5852 5855 5857 5860 5862 5865 5868 5871 5874 5876 5879 5882 5884 5886 5888 5890 5891 5892 5892 5893 5893 5893 5893 5893 5893 5893 5893 5893 5892 5892 5892 5891 5891 5890 5890
5827 5829 5831 5833 5834 5835 5837 5842 5839 5840 5842 5843 5845 5847 5849 5852 5854 5857 5859 5862 5865 5868 5871 5874 5877 5879 5882 5884 5886 5888 5889 5890 5891 5892 5893 5893 5894 5894 5894 5894 5894 5893 5893 5893 5892 5892 5891 5891 5890